Location: San Antonio
(29.4240°N, 98.4930°W)
Time: 02:18:10
(UTC-05:00)

DUCHIFAT 1 - Pass Details

Date: 07 August 2024
Orbit: 522 x 542 km, 98.1° (Epoch: 15 September)

Event Time Altitude Azimuth Distance (km) Brightness Sun altitude
Rises 06:24:50 0° 13° (NNE) 2,732 ? -7.6°
Reaches altitude 10° 06:26:59 10° 14° (NNE) 1,831 ? -7.1°
Maximum altitude 06:30:56 81° 102° (ESE) 559 ? -6.3°
Drops below altitude 10° 06:34:50 10° 190° (S) 1,804 ? -5.5°
Sets 06:36:56 0° 191° (S) 2,687 ? -5.1°
